Location: ???? ?????
(30.0052°N, 31.2891°E)
Time: 18:18:36
(UTC+00:00)

ACS3 Solar Sail - Pass Details

Date: 20 September 2024
Orbit: 961 x 1035 km, 97.4° (Epoch: 08 October)

Event Time Altitude Azimuth Distance (km) Brightness Sun altitude
Exits shadow 18:56:51 41° 288° (WNW) 1,464 2.9 -39.0°
Drops below altitude 10° 19:01:52 10° 334° (NNW) 2,845 4.7 -40.0°
Sets 19:04:32 0° 340° (NNW) 3,800 5.4 -40.5°
